CW8399 Weather Reports


Display with metric or nautical units.
time (UTC)temp
F
wind
direction
speed
MPH
gust
MPH
rain 1hr
in
rain 24hr
in
rain mn
in
humidity
%
barometer
mb
20260507062506 72 45 0.0 1.0 0.00 0.00 0.00
20260507062027 73 44 0.0 1.0 0.00 0.00 0.00
20260507061517 73 44 0.0 1.0 0.00 0.00 0.00
20260507061017 73 45 0.0 1.0 0.00 0.00 0.00
20260507060515 73 45 0.0 1.0 0.00 0.00 0.00
20260507055958 73 44 0.0 2.0 0.00 0.00 0.00
20260507055500 73 44 1.0 2.0 0.00 0.00 0.00
20260507055022 74 45 1.0 2.0 0.00 0.00 0.00
20260507054511 74 46 0.0 2.0 0.00 0.00 0.00
20260507054010 74 344 1.0 2.0 0.00 0.00 0.00
20260507053014 74 0 1.0 2.0 0.00 0.00 0.00
20260507052515 74 0 0.0 0.0 0.00 0.00 0.00
20260507052020 75 0 0.0 2.0 0.00 0.00 0.00
20260507051516 75 0 0.0 2.0 0.00 0.00 0.00
20260507051015 75 0 0.0 0.0 0.00 0.00 0.00
20260507050516 75 0 0.0 2.0 0.00 0.00 0.00
20260507050016 76 0 1.0 2.0 0.00 0.00 0.00
20260507045500 76 0 1.0 2.0 0.00 0.00 0.00
20260507045003 76 353 1.0 3.0 0.00 0.00 0.00
20260507044525 76 213 2.0 4.0 0.00 0.00 0.00
20260507043501 76 0 2.0 3.0 0.00 0.00 0.00
20260507043003 76 0 2.0 2.0 0.00 0.00 0.00
20260507042009 77 0 0.0 0.0 0.00 0.00 0.00
20260507041529 77 0 0.0 0.0 0.00 0.00 0.00
20260507041000 77 0 0.0 0.0 0.00 0.00 0.00
20260507040501 77 0 0.0 0.0 0.00 0.00 0.00
20260507040002 78 0 0.0 0.0 0.00 0.00 0.00
20260507035502 78 0 0.0 0.0 0.00 0.00 0.00
20260507035023 78 0 0.0 0.0 0.00 0.00 0.00
20260507034516 78 0 0.0 1.0 0.00 0.00 0.00
20260507034014 78 0 0.0 1.0 0.00 0.00 0.00
20260507033500 79 0 0.0 1.0 0.00 0.00 0.00
20260507032506 79 0 0.0 0.0 0.00 0.00 0.00
20260507032028 80 0 0.0 1.0 0.00 0.00 0.00
20260507031500 80 0 0.0 1.0 0.00 0.00 0.00
20260507030503 80 0 1.0 2.0 0.00 0.00 0.00
20260507030001 81 0 0.0 2.0 0.00 0.00 0.00
20260507025503 81 0 0.0 2.0 0.00 0.00 0.00
20260507025003 82 0 0.0 1.0 0.00 0.00 0.00
20260507023959 83 0 0.0 3.0 0.00 0.00 0.00
20260507023501 83 0 1.0 3.0 0.00 0.00 0.00
20260507023001 83 0 1.0 3.0 0.00 0.00 0.00
20260507022504 84 0 0.0 4.0 0.00 0.00 0.00
20260507022008 84 0 0.0 4.0 0.00 0.00 0.00
20260507021019 85 0 1.0 5.0 0.00 0.00 0.00
20260507020458 85 337 2.0 6.0 0.00 0.00 0.00
20260507015507 86 346 5.0 7.0 0.00 0.00 0.00
20260507015009 86 0 3.0 7.0 0.00 0.00 0.00
20260507014501 86 0 3.0 5.0 0.00 0.00 0.00
20260507013508 87 0 0.0 5.0 0.00 0.00 0.00
20260507013009 87 351 4.0 5.0 0.00 0.00 0.00
20260507012016 88 188 0.0 8.0 0.00 0.00 0.00
20260507011507 88 0 4.0 8.0 0.00 0.00 0.00
20260507011009 88 0 3.0 8.0 0.00 0.00 0.00
20260507010510 88 0 3.0 8.0 0.00 0.00 0.00
20260507010011 88 355 6.0 8.0 0.00 0.00 0.00
20260507005518 88 13 4.0 7.0 0.00 0.00 0.00
20260507005019 88 321 2.0 6.0 0.00 0.00 0.00
20260507004511 88 0 2.0 8.0 0.00 0.00 0.00
20260507004011 88 357 5.0 8.0 0.00 0.00 0.00
20260507003513 88 341 5.0 10.0 0.00 0.00 0.00
20260507003013 88 0 6.0 10.0 0.00 0.00 0.00
20260507002515 88 352 3.0 10.0 0.00 0.00 0.00
20260507001512 88 0 5.0 8.0 0.00 0.00 0.00
20260507001017 88 357 6.0 9.0 0.00 0.00 0.00
20260507000019 88 355 4.0 9.0 0.00 0.00 0.00
20260506235519 88 342 4.0 6.0 0.00 0.00 0.00
20260506234512 88 355 2.0 6.0 0.00 0.00 0.00
20260506234013 88 338 3.0 6.0 0.00 0.00 0.00
20260506233519 88 302 2.0 7.0 0.00 0.00 0.00
20260506232959 88 0 0.0 9.0 0.00 0.00 0.00
20260506232501 88 0 1.0 9.0 0.00 0.00 0.00
20260506232023 88 349 2.0 5.0 0.00 0.00 0.00
20260506231001 88 355 1.0 6.0 0.00 0.00 0.00
20260506230004 88 0 3.0 8.0 0.00 0.00 0.00
20260506225505 88 0 3.0 7.0 0.00 0.00 0.00
20260506225005 88 345 5.0 7.0 0.00 0.00 0.00
20260506224527 88 345 5.0 12.0 0.00 0.00 0.00
20260506224020 88 0 6.0 12.0 0.00 0.00 0.00
20260506223003 87 17 4.0 9.0 0.00 0.00 0.00
20260506222505 87 335 5.0 9.0 0.00 0.00 0.00
20260506221504 87 355 5.0 8.0 0.00 0.00 0.00
20260506221002 87 342 4.0 8.0 0.00 0.00 0.00
20260506220008 87 0 4.0 7.0 0.00 0.00 0.00
20260506215014 87 0 1.0 9.0 0.00 0.00 0.00
20260506214010 87 0 2.0 12.0 0.00 0.00 0.00
20260506213511 87 92 4.0 8.0 0.00 0.00 0.00
20260506213010 87 9 0.0 9.0 0.00 0.00 0.00
20260506212511 87 343 5.0 9.0 0.00 0.00 0.00
20260506212013 87 0 4.0 11.0 0.00 0.00 0.00
20260506210015 87 353 10.0 23.0 0.00 0.00 0.00
20260506205515 86 317 0.0 7.0 0.00 0.00 0.00
20260506204011 86 0 5.0 12.0 0.00 0.00 0.00
20260506203512 85 359 5.0 11.0 0.00 0.00 0.00
20260506203016 85 341 5.0 11.0 0.00 0.00 0.00
20260506202517 85 0 1.0 7.0 0.00 0.00 0.00
20260506202018 85 312 3.0 9.0 0.00 0.00 0.00
20260506201011 85 0 1.0 7.0 0.00 0.00 0.00
20260506200016 85 356 4.0 8.0 0.00 0.00 0.00
20260506195459 85 353 3.0 8.0 0.00 0.00 0.00
20260506195023 85 346 5.0 8.0 0.00 0.00 0.00
20260506194515 84 359 3.0 8.0 0.00 0.00 0.00
20260506193503 84 355 0.0 7.0 0.00 0.00 0.00
20260506193007 83 325 2.0 8.0 0.00 0.00 0.00
20260506192505 83 357 5.0 8.0 0.00 0.00 0.00
20260506191520 83 347 2.0 10.0 0.00 0.00 0.00
20260506191003 83 357 5.0 9.0 0.00 0.00 0.00
20260506190005 82 0 1.0 8.0 0.00 0.00 0.00
20260506185506 82 359 1.0 9.0 0.00 0.00 0.00
20260506185025 82 0 4.0 9.0 0.00 0.00 0.00
20260506184515 81 321 2.0 7.0 0.00 0.00 0.00
20260506184015 81 0 2.0 7.0 0.00 0.00 0.00
20260506182959 80 0 4.0 9.0 0.00 0.00 0.00
20260506182501 80 0 4.0 9.0 0.00 0.00 0.00
20260506182023 80 358 5.0 8.0 0.00 0.00 0.00
20260506181514 80 0 1.0 7.0 0.00 0.00 0.00
20260506181013 79 35 3.0 7.0 0.00 0.00 0.00
20260506180516 79 339 3.0 7.0 0.00 0.00 0.00
20260506180016 79 0 2.0 6.0 0.00 0.00 0.00
20260506175500 78 359 0.0 8.0 0.00 0.00 0.00
20260506175020 78 350 4.0 9.0 0.00 0.00 0.00
20260506174512 78 356 6.0 9.0 0.00 0.00 0.00
20260506174012 77 337 5.0 9.0 0.00 0.00 0.00
20260506173515 77 334 1.0 8.0 0.00 0.00 0.00
20260506173015 77 0 4.0 8.0 0.00 0.00 0.00
20260506172515 76 0 2.0 8.0 0.00 0.00 0.00
20260506170515 75 355 6.0 9.0 0.00 0.00 0.00
20260506170017 75 359 6.0 8.0 0.00 0.00 0.00
20260506165518 74 344 3.0 7.0 0.00 0.00 0.00
20260506164514 73 0 1.0 8.0 0.00 0.00 0.00
20260506163515 73 336 3.0 11.0 0.00 0.00 0.00
20260506163016 72 0 4.0 11.0 0.00 0.00 0.00
20260506162502 72 357 3.0 8.0 0.00 0.00 0.00
20260506162025 71 18 3.0 7.0 0.00 0.00 0.00
20260506161517 71 335 3.0 7.0 0.00 0.00 0.00
20260506160521 70 357 2.0 7.0 0.00 0.00 0.00
20260506160019 70 347 1.0 7.0 0.00 0.00 0.00
20260506154500 69 347 4.0 8.0 0.00 0.00 0.00
20260506153959 69 349 5.0 7.0 0.00 0.00 0.00
20260506153501 68 228 1.0 6.0 0.00 0.00 0.00
20260506153003 68 350 2.0 6.0 0.00 0.00 0.00
20260506152504 68 0 3.0 6.0 0.00 0.00 0.00
20260506152004 67 357 2.0 4.0 0.00 0.00 0.00
20260506151525 67 0 1.0 4.0 0.00 0.00 0.00
20260506151014 66 317 0.0 3.0 0.00 0.00 0.00
20260506145505 65 252 0.0 3.0 0.00 0.00 0.00
20260506145004 65 354 0.0 4.0 0.00 0.00 0.00
20260506144527 65 304 1.0 4.0 0.00 0.00 0.00
20260506144018 64 0 0.0 4.0 0.00 0.00 0.00
20260506143500 64 359 1.0 4.0 0.00 0.00 0.00
20260506143020 64 0 2.0 5.0 0.00 0.00 0.00
20260506142521 63 359 2.0 5.0 0.00 0.00 0.00
20260506142002 63 278 2.0 4.0 0.00 0.00 0.00
20260506141524 62 31 0.0 4.0 0.00 0.00 0.00
20260506141014 62 345 2.0 4.0 0.00 0.00 0.00
20260506140518 62 0 0.0 2.0 0.00 0.00 0.00
20260506140000 61 0 0.0 1.0 0.00 0.00 0.00
20260506135026 61 0 0.0 1.0 0.00 0.00 0.00
20260506134002 60 0 0.0 1.0 0.00 0.00 0.00
20260506133007 60 0 0.0 1.0 0.00 0.00 0.00
20260506132509 60 0 0.0 1.0 0.00 0.00 0.00
20260506132009 59 0 0.0 0.0 0.00 0.00 0.00
20260506131503 59 0 0.0 0.0 0.00 0.00 0.00
20260506131004 59 0 0.0 1.0 0.00 0.00 0.00
20260506130504 59 0 0.0 1.0 0.00 0.00 0.00
20260506130004 59 0 0.0 1.0 0.00 0.00 0.00
20260506125505 59 0 0.0 2.0 0.00 0.00 0.00
20260506124521 59 0 0.0 2.0 0.00 0.00 0.00
20260506124018 59 0 0.0 1.0 0.00 0.00 0.00
20260506123517 59 0 0.0 1.0 0.00 0.00 0.00
20260506123020 59 0 0.0 0.0 0.00 0.00 0.00
20260506122504 59 0 0.0 0.0 0.00 0.00 0.00
20260506122005 59 0 0.0 0.0 0.00 0.00 0.00
20260506120003 60 0 0.0 0.0 0.00 0.00 0.00
20260506115505 60 0 0.0 1.0 0.00 0.00 0.00
20260506115006 60 0 0.0 1.0 0.00 0.00 0.00
20260506114528 60 0 0.0 1.0 0.00 0.00 0.00
20260506114000 60 0 0.0 0.0 0.00 0.00 0.00
20260506113004 60 0 0.0 0.0 0.00 0.00 0.00
20260506112505 60 0 0.0 0.0 0.00 0.00 0.00
20260506112024 60 0 0.0 0.0 0.00 0.00 0.00
20260506111515 60 0 0.0 1.0 0.00 0.00 0.00
20260506111016 60 0 0.0 1.0 0.00 0.00 0.00
20260506110509 60 0 0.0 1.0 0.00 0.00 0.00
20260506110010 61 0 0.0 0.0 0.00 0.00 0.00
20260506105514 61 0 0.0 1.0 0.00 0.00 0.00
20260506105014 61 0 0.0 1.0 0.00 0.00 0.00
20260506104505 61 0 0.0 1.0 0.00 0.00 0.00
20260506104007 61 0 0.0 1.0 0.00 0.00 0.00
20260506103011 61 0 0.0 1.0 0.00 0.00 0.00
20260506102513 61 0 0.0 1.0 0.00 0.00 0.00
20260506102018 61 0 0.0 1.0 0.00 0.00 0.00
20260506100500 62 0 0.0 0.0 0.00 0.00 0.00
20260506100002 62 0 0.0 1.0 0.00 0.00 0.00
20260506095505 62 0 0.0 1.0 0.00 0.00 0.00
20260506094501 62 0 0.0 1.0 0.00 0.00 0.00
20260506094001 63 0 0.0 1.0 0.00 0.00 0.00
20260506093506 63 0 0.0 1.0 0.00 0.00 0.00
20260506092510 63 0 0.0 1.0 0.00 0.00 0.00
20260506092012 63 0 0.0 1.0 0.00 0.00 0.00
20260506090014 63 0 0.0 1.0 0.00 0.00 0.00
20260506085513 63 0 0.0 0.0 0.00 0.00 0.00
20260506084508 64 0 0.0 1.0 0.00 0.00 0.00
20260506083512 64 0 0.0 1.0 0.00 0.00 0.00
20260506083011 64 0 0.0 1.0 0.00 0.00 0.00
20260506082514 64 0 0.0 1.0 0.00 0.00 0.00
20260506082013 64 0 0.0 0.0 0.00 0.00 0.00
20260506081506 64 0 0.0 0.0 0.00 0.00 0.00
20260506080508 65 0 0.0 0.0 0.00 0.00 0.00
20260506073016 66 0 0.0 3.0 0.00 0.00 0.00
20260506072516 66 0 0.0 2.0 0.00 0.00 0.00
20260506071513 67 0 0.0 2.0 0.00 0.00 0.00
20260506071012 67 0 0.0 2.0 0.00 0.00 0.00